Location: Mount Cross
(36.6390°N, 79.4878°W)
Time: 22:14:04
(UTC+00:00)

BlueWalker 3 - Visible Passes

Search period start: 02 February 2023 00:00
Search period end: 12 February 2023 00:00
Orbit: 499 x 517 km, 53.2° (Epoch: 01 February)

Date Brightness Start Highest point End Pass type
(mag) Time Alt. Az. Time Alt. Az. Time Alt. Az.
08 Feb 4.8 01:14:26 10° NNW 01:14:43 12° NNW 01:14:43 12° NNW visible
09 Feb 4.1 00:55:24 10° NNW 00:56:47 19° NNW 00:56:47 19° NNW visible
10 Feb 3.1 00:36:22 10° NNW 00:38:58 31° N 00:38:58 31° N visible
11 Feb 2.4 00:17:19 10° NNW 00:21:00 40° NE 00:21:15 39° NE visible
